| time (UTC) | temp C | wind direction | speed KPH | gust KPH | rain 1hr cm | rain 24hr cm | rain mn cm | humidity % | barometer mb |
| 20260903181553 | 9 | 308 | 4.8 | 12.9 | 0.00 | 0.00 | 0.00 | 80 | 1018.6 |
| 20260903180050 | 9 | 310 | 1.6 | 12.9 | 0.00 | 0.00 | 0.00 | 80 | 1018.5 |
| 20260903174547 | 9 | 286 | 1.6 | 12.9 | 0.00 | 0.00 | 0.00 | 81 | 1018.5 |
| 20260903171552 | 9 | 309 | 1.6 | 9.7 | 0.00 | 0.00 | 0.00 | 81 | 1018.6 |
| 20260903170042 | 9 | 306 | 0.0 | 9.7 | 0.00 | 0.00 | 0.00 | 81 | 1018.8 |
| 20260903164544 | 9 | 302 | 3.2 | 9.7 | 0.00 | 0.00 | 0.00 | 81 | 1018.9 |
| 20260903161536 | 10 | 286 | 0.0 | 11.3 | 0.00 | 0.00 | 0.00 | 79 | 1019.1 |
| 20260903160054 | 10 | 313 | 1.6 | 9.7 | 0.00 | 0.00 | 0.00 | 78 | 1019.2 |
| 20260903154532 | 10 | 291 | 1.6 | 11.3 | 0.00 | 0.00 | 0.00 | 78 | 1019.3 |
| 20260903151531 | 10 | 314 | 0.0 | 11.3 | 0.00 | 0.00 | 0.00 | 78 | 1019.4 |
| 20260903150031 | 10 | 317 | 4.8 | 11.3 | 0.00 | 0.00 | 0.00 | 78 | 1019.4 |
| 20260903144528 | 10 | 311 | 4.8 | 11.3 | 0.00 | 0.00 | 0.00 | 78 | 1019.4 |
| 20260903141525 | 10 | 311 | 3.2 | 12.9 | 0.00 | 0.00 | 0.00 | 79 | 1019.5 |
| 20260903140022 | 10 | 328 | 1.6 | 11.3 | 0.00 | 0.00 | 0.00 | 79 | 1019.5 |
| 20260903134521 | 10 | 318 | 3.2 | 9.7 | 0.00 | 0.00 | 0.00 | 78 | 1019.6 |
| 20260903131520 | 11 | 324 | 3.2 | 11.3 | 0.00 | 0.00 | 0.00 | 77 | 1019.7 |
| 20260903130019 | 11 | 299 | 1.6 | 11.3 | 0.00 | 0.00 | 0.00 | 77 | 1019.6 |
| 20260903124518 | 11 | 320 | 4.8 | 12.9 | 0.00 | 0.00 | 0.00 | 77 | 1019.6 |
| 20260903121514 | 11 | 319 | 1.6 | 6.4 | 0.00 | 0.00 | 0.00 | 73 | 1019.4 |
| 20260903120013 | 11 | 323 | 1.6 | 8.0 | 0.00 | 0.00 | 0.00 | 73 | 1019.3 |
| 20260903114512 | 11 | 269 | 4.8 | 11.3 | 0.00 | 0.00 | 0.00 | 72 | 1019.1 |
| 20260903111509 | 12 | 290 | 1.6 | 9.7 | 0.00 | 0.00 | 0.00 | 70 | 1018.8 |
| 20260903110009 | 12 | 270 | 3.2 | 9.7 | 0.00 | 0.00 | 0.00 | 69 | 1018.8 |
| 20260903104507 | 12 | 252 | 4.8 | 19.3 | 0.00 | 0.00 | 0.00 | 69 | 1018.5 |
| 20260903101504 | 12 | 264 | 1.6 | 8.0 | 0.00 | 0.00 | 0.00 | 68 | 1018.1 |
| 20260903100002 | 12 | 239 | 1.6 | 11.3 | 0.00 | 0.00 | 0.00 | 68 | 1017.8 |
| 20260903094501 | 12 | 285 | 1.6 | 11.3 | 0.00 | 0.00 | 0.00 | 66 | 1017.6 |
| 20260903091556 | 13 | 236 | 4.8 | 14.5 | 0.00 | 0.00 | 0.00 | 66 | 1017.1 |
| 20260903090059 | 13 | 220 | 3.2 | 16.1 | 0.00 | 0.00 | 0.00 | 66 | 1016.9 |
| 20260903084555 | 13 | 265 | 4.8 | 17.7 | 0.00 | 0.00 | 0.00 | 65 | 1016.7 |
| 20260903081552 | 14 | 280 | 6.4 | 16.1 | 0.00 | 0.00 | 0.00 | 63 | 1016.3 |
| 20260903080103 | 14 | 216 | 6.4 | 16.1 | 0.00 | 0.00 | 0.00 | 62 | 1016.0 |
| 20260903074602 | 15 | 244 | 8.0 | 20.9 | 0.00 | 0.00 | 0.00 | 62 | 1015.9 |
| 20260903071547 | 15 | 241 | 9.7 | 24.1 | 0.00 | 0.00 | 0.00 | 59 | 1015.1 |
| 20260903070044 | 16 | 232 | 12.9 | 25.7 | 0.00 | 0.00 | 0.00 | 58 | 1015.0 |
| 20260903064545 | 16 | 257 | 9.7 | 22.5 | 0.00 | 0.00 | 0.00 | 57 | 1014.9 |
| 20260903061545 | 16 | 196 | 9.7 | 24.1 | 0.00 | 0.00 | 0.00 | 56 | 1014.6 |
| 20260903060038 | 16 | 213 | 11.3 | 30.6 | 0.00 | 0.00 | 0.00 | 55 | 1014.3 |
| 20260903054536 | 17 | 236 | 16.1 | 30.6 | 0.00 | 0.00 | 0.00 | 53 | 1014.1 |
| 20260903051535 | 17 | 233 | 12.9 | 24.1 | 0.00 | 0.00 | 0.00 | 54 | 1013.9 |
| 20260903050034 | 17 | 254 | 12.9 | 32.2 | 0.00 | 0.00 | 0.00 | 55 | 1013.7 |
| 20260903044532 | 17 | 243 | 11.3 | 32.2 | 0.00 | 0.00 | 0.00 | 57 | 1013.6 |
| 20260903041537 | 17 | 239 | 11.3 | 35.4 | 0.00 | 0.00 | 0.00 | 59 | 1013.3 |
| 20260903040026 | 17 | 250 | 8.0 | 32.2 | 0.00 | 0.00 | 0.00 | 63 | 1013.1 |
| 20260903034529 | 16 | 263 | 8.0 | 25.7 | 0.00 | 0.00 | 0.00 | 68 | 1013.0 |
| 20260903031519 | 14 | 248 | 4.8 | 19.3 | 0.00 | 0.00 | 0.00 | 77 | 1013.0 |
| 20260903030020 | 14 | 304 | 11.3 | 24.1 | 0.00 | 0.00 | 0.00 | 78 | 1013.2 |
| 20260903024519 | 14 | 278 | 12.9 | 24.1 | 0.00 | 0.00 | 0.00 | 80 | 1013.2 |
| 20260903021517 | 13 | 288 | 6.4 | 19.3 | 0.00 | 0.00 | 0.00 | 85 | 1012.7 |
| 20260903020017 | 13 | 273 | 9.7 | 22.5 | 0.00 | 0.00 | 0.00 | 84 | 1012.8 |
| 20260903014517 | 13 | 270 | 6.4 | 27.4 | 0.00 | 0.00 | 0.00 | 81 | 1012.6 |
| 20260903011514 | 13 | 221 | 8.0 | 16.1 | 0.00 | 0.00 | 0.00 | 86 | 1012.6 |
| 20260903010012 | 13 | 264 | 9.7 | 20.9 | 0.00 | 0.00 | 0.00 | 83 | 1012.5 |
| 20260903004514 | 13 | 244 | 6.4 | 19.3 | 0.00 | 0.00 | 0.00 | 83 | 1012.2 |
| 20260903001508 | 13 | 338 | 12.9 | 29.0 | 0.00 | 0.00 | 0.00 | 77 | 1011.9 |
| 20260903000005 | 15 | 246 | 11.3 | 29.0 | 0.00 | 0.00 | 0.00 | 69 | 1011.5 |
| 20260902234503 | 15 | 286 | 9.7 | 27.4 | 0.00 | 0.00 | 0.00 | 65 | 1011.3 |
| 20260902231607 | 14 | 264 | 11.3 | 29.0 | 0.00 | 0.00 | 0.00 | 66 | 1010.9 |
| 20260902230056 | 14 | 338 | 12.9 | 30.6 | 0.00 | 0.00 | 0.00 | 66 | 1010.8 |
| 20260902224604 | 14 | 282 | 8.0 | 33.8 | 0.00 | 0.00 | 0.00 | 66 | 1010.6 |
| 20260902223153 | 13 | 311 | 12.9 | 29.0 | 0.00 | 0.00 | 0.00 | 68 | 1010.5 |
| 20260902221549 | 12 | 323 | 12.9 | 30.6 | 0.00 | 0.00 | 0.00 | 70 | 1010.4 |
| 20260902220053 | 12 | 338 | 9.7 | 22.5 | 0.00 | 0.00 | 0.00 | 70 | 1010.2 |
| 20260902214546 | 12 | 333 | 9.7 | 29.0 | 0.00 | 0.00 | 0.00 | 69 | 1010.3 |
| 20260902213147 | 12 | 298 | 6.4 | 20.9 | 0.00 | 0.00 | 0.00 | 69 | 1010.1 |
| 20260902211549 | 11 | 24 | 11.3 | 22.5 | 0.00 | 0.00 | 0.00 | 69 | 1009.9 |
| 20260902210048 | 11 | 355 | 4.8 | 17.7 | 0.00 | 0.00 | 0.00 | 69 | 1009.7 |
| 20260902204544 | 11 | 336 | 4.8 | 12.9 | 0.00 | 0.00 | 0.00 | 68 | 1009.3 |
| 20260902203143 | 12 | 325 | 9.7 | 17.7 | 0.00 | 0.00 | 0.00 | 67 | 1009.1 |
| 20260902201545 | 12 | 317 | 11.3 | 22.5 | 0.00 | 0.00 | 0.00 | 66 | 1009.3 |
| 20260902200052 | 12 | 321 | 6.4 | 22.5 | 0.00 | 0.00 | 0.00 | 65 | 1009.5 |
| 20260902194541 | 12 | 325 | 8.0 | 17.7 | 0.00 | 0.00 | 0.00 | 65 | 1009.4 |
| 20260902193140 | 12 | 336 | 8.0 | 20.9 | 0.00 | 0.00 | 0.00 | 65 | 1009.4 |
| 20260902191549 | 12 | 312 | 8.0 | 20.9 | 0.00 | 0.00 | 0.00 | 66 | 1009.4 |
| 20260902190040 | 11 | 355 | 8.0 | 17.7 | 0.00 | 0.00 | 0.00 | 67 | 1009.1 |
| 20260902184548 | 11 | 325 | 8.0 | 16.1 | 0.00 | 0.00 | 0.00 | 67 | 1009.0 |